Simultaneous Nadir Overpasses (SNOs) Predictions

Prediction of SNOs between NOAA-20 and NOAA-19 Satellite Orbit:

Table of predicted SNOs for the next 14.0 days since TLE Epoch: 8/7/2020
Index Date (NOAA-20) Time (NOAA-20) Lat,Lon (NOAA-20) SZA (NOAA-20 ) Date (NOAA-19) Time (NOAA-19) Lat,Lon (NOAA-19) SZA (NOAA-19 ) Distance(km) Time Diff (sec)
1 08/21/2020 06:03:35 -79.12,-122.23 111.13 08/21/2020 06:02:28 -79.15,-122.24 111.08 3.23 67
2 08/21/2020 06:54:21 79.14, 44.89 68.93 08/21/2020 06:53:30 79.13, 44.89 68.94 1.18 51
3 08/21/2020 07:45:06 -79.16,-147.90 111.05 08/21/2020 07:44:29 -79.13,-147.87 111.05 2.98 37
4 08/21/2020 08:35:51 79.15, 19.48 68.96 08/21/2020 08:35:30 79.15, 19.53 68.96 1.14 21
5 08/21/2020 09:26:36 -79.16,-173.31 111.01 08/21/2020 09:26:29 -79.15,-173.23 111.03 2.37 7
6 08/21/2020 10:17:21 79.15, -5.93 68.99 08/21/2020 10:17:30 79.17, -5.82 68.98 2.72 9
7 08/21/2020 11:08:06 -79.17, 161.28 110.98 08/21/2020 11:08:29 -79.16, 161.41 111.01 2.81 23
8 08/21/2020 11:58:51 79.16, -31.34 69.02 08/21/2020 11:59:31 79.15, -31.44 69.01 2.21 40
9 08/21/2020 12:49:36 -79.17, 135.87 110.95 08/21/2020 12:50:30 -79.15, 135.79 110.99 3.12 54
10 08/21/2020 13:40:21 79.16, -56.75 69.05 08/21/2020 13:41:31 79.17, -56.80 69.03 1.08 70
